Regional Weather Roundup
Issued by NWS Green Bay, WI

Home | Current Version | Previous Version | Graphics & Text | Print | Product List | Glossary Off
Versions: 1 2 3 4 5 6 7 8 9 10 11 12 13 14 15 16 17 18 19 20 21 22 23 24 25 26 27 28 29 30 31 32 33 34 35 36 37 38 39 40 41 42 43 44 45 46 47 48 49 50

000
ASUS43 KGRB 202159
RWRGRB

NORTH-CENTRAL AND NORTHEAST WISCONSIN REGIONAL WEATHER ROUNDUP
NATIONAL WEATHER SERVICE GREEN BAY WI
500 PM CDT SUN APR 20 2014

WIZ005-009-010>012-018-019-202300-
NORTH CENTRAL WISCONSIN

CITY           SKY/WX    TMP DP  RH WIND       PRES   REMARKS
IRONWOOD       SUNNY     61  36  39 NW9       29.96F
MANITOWISH WTR NOT AVBL
ARBOR VITAE    NOT AVBL
EAGLE RIVER    NOT AVBL
LAND O LAKES   NOT AVBL
RHINELANDER    PTSUNNY   63  50  62 S10       30.01F
PHILLIPS       NOT AVBL
ANTIGO         NOT AVBL
TOMAHAWK       NOT AVBL
MERRILL        NOT AVBL
$$

WIZ013-073-202300-
NORTHEAST WISCONSIN

CITY           SKY/WX    TMP DP  RH WIND       PRES   REMARKS
IRON MOUNTAIN  CLOUDY    59  49  69 S8        29.99S
MARINETTE      CLOUDY    52  46  82 SW8       30.04S
$$

WIZ017-030-035>037-045-202300-
CENTRAL WISCONSIN

CITY           SKY/WX    TMP DP  RH WIND       PRES   REMARKS
MEDFORD        NOT AVBL
WAUSAU         CLOUDY    57  50  77 S7        30.02S
MOSINEE        CLOUDY    57  54  88 S8        30.05
MARSHFIELD     CLOUDY    60  54  80 S8        30.02F
WISC RAPIDS    PTSUNNY   61  52  72 S7        30.05F
STEVENS POINT  NOT AVBL
WAUPACA        NOT AVBL
SHAWANO        NOT AVBL
CLINTONVILLE   NOT AVBL
$$

WIZ038-039-048-051-202300-
FOX VALLEY

CITY           SKY/WX    TMP DP  RH WIND       PRES   REMARKS
NWS GREEN BAY  CLOUDY    57  49  74 S5        30.05F
APPLETON       LGT RAIN  55  52  88 VRB5      30.06F
OSHKOSH        LGT RAIN  61  54  77 CALM      30.05F
FOND DU LAC    LGT RAIN  61  51  70 CALM      30.06F
$$

WIZ022-050-052-202300-
EAST CENTRAL WISCONSIN

CITY           SKY/WX    TMP DP  RH WIND       PRES   REMARKS
STURGEON BAY   CLOUDY    45  37  76 S7        30.07F
MANITOWOC      NOT AVBL
SHEBOYGAN      CLOUDY    59  39  47 SE8       30.07F
$$

LMZ563-521-522-541>543-202300-
LAKESHORE

STATION/POSITION TIME  TEMP    WIND        PRES    VSBY  WAVE
                       AIR SEA DIR/SP/G                  HT/PER
                 (UTC) (F)     (DEG/KT/KT) (MB)    (MI)  (FT/S)
SHEBOYGAN LKSHOR 2100   45     160/ 10/ 12 1019.5F
KEWAUNEE LKSHORE 2100   39     160/  6/  9 1019.3F
NORTHPORT PIER   2100   41     160/  6/ 10 1018.3F
SISTER BAY LKSHO 2100   46     170/  8/ 12   N/A
STURGEON BAY CG  2100   39     200/  9     1019.2      6   2
MENOMINEE LKSHOR 2100   41     160/ 11/ 13 1017.9F
$$



USA.gov is the U.S. government's official web portal to all federal, state and local government web resources and services.